Volver al catálogo

ONEWEB-0183

ActivoComunicacionesPO
NORAD 48219·PAYLOAD·🇬🇧 United Kingdom

Lanzado Apr 25, 2021 desde Vostochny Cosmodrome

Loading…

Próximos Pases (próximas 24 horas)

TLE

ActualizadoSource: CelesTrak SupGP

Época: Sep 15, 2026, 02:13 UTC

1 48219C 21031K   26258.09288611 -.00002755  00000+0 -74386-2 0  2587
2 48219  87.8905 271.7743 0001967  97.9480 292.3600 13.14508466    15

Sigue ONEWEB-0183 en tiempo real con AllMySat

Download on the App Store